Location: Unspecified
(0.0000°N, 0.0000°E)
Time: 03:09:30
(UTC+00:00)

Vanguard 2 Rocket - Pass Details

Date: 19 December 2018
Orbit: 554 x 3327 km, 32.9° (Epoch: 16 January)

Event Time Altitude Azimuth Distance (km) Brightness Sun altitude
Rises 16:14:10 0° 260° (W) 5,582 12.2 23.5°
Reaches altitude 10° 16:18:31 10° 247° (WSW) 4,993 12.8 22.5°
Maximum altitude 16:30:24 25° 197° (SSW) 4,657 11.3 19.8°
Drops below altitude 10° 16:45:25 10° 148° (SSE) 6,287 11.1 16.4°
Sets 16:52:05 0° 136° (SE) 7,269 11.3 14.9°
